Time,TemperatureF,DewpointF,PressureIn,WindDirection,WindDirectionDegrees,WindSpeedMPH,WindSpeedGustMPH,Humidity,HourlyPrecipIn,Conditions,Clouds,dailyrainin,SoftwareType,DateUTC
2013-02-21 00:05:00,20.6,17.0,30.26,SW,236,4.0,7.0,86,0.00,,,0.00,weatherlink.com 1.10,2013-02-21 05:05:00,
2013-02-21 00:20:00,20.5,17.0,30.25,SW,228,3.0,6.0,87,0.00,,,0.00,weatherlink.com 1.10,2013-02-21 05:20:00,
2013-02-21 00:35:00,20.5,17.0,30.26,SSW,201,0.0,6.0,87,0.00,,,0.00,weatherlink.com 1.10,2013-02-21 05:35:00,
2013-02-21 00:50:00,20.6,17.0,30.26,WSW,252,1.0,5.0,87,0.00,,,0.00,weatherlink.com 1.10,2013-02-21 05:50:00,
2013-02-21 01:05:00,20.6,17.0,30.26,WSW,253,4.0,5.0,87,0.00,,,0.00,weatherlink.com 1.10,2013-02-21 06:05:00,
2013-02-21 01:20:00,20.6,17.0,30.26,WSW,240,0.0,4.0,87,0.00,,,0.00,weatherlink.com 1.10,2013-02-21 06:20:00,
2013-02-21 01:36:00,20.8,18.0,30.26,SW,221,1.0,4.0,87,0.00,,,0.00,weatherlink.com 1.10,2013-02-21 06:36:00,
2013-02-21 01:50:00,20.8,18.0,30.27,WSW,258,0.0,4.0,88,0.00,,,0.00,weatherlink.com 1.10,2013-02-21 06:50:00,
2013-02-21 02:05:00,20.8,18.0,30.27,SW,221,0.0,4.0,88,0.00,,,0.00,weatherlink.com 1.10,2013-02-21 07:05:00,
2013-02-21 02:20:00,20.8,18.0,30.27,SSW,202,2.0,5.0,88,0.00,,,0.00,weatherlink.com 1.10,2013-02-21 07:20:00,
2013-02-21 02:35:00,20.9,18.0,30.27,SSW,202,2.0,7.0,88,0.00,,,0.00,weatherlink.com 1.10,2013-02-21 07:35:00,
2013-02-21 02:50:00,20.9,18.0,30.27,WSW,257,3.0,4.0,88,0.00,,,0.00,weatherlink.com 1.10,2013-02-21 07:50:00,
2013-02-21 03:05:00,21.0,18.0,30.27,SW,231,0.0,5.0,88,0.00,,,0.00,weatherlink.com 1.10,2013-02-21 08:05:00,
2013-02-21 03:20:00,21.1,18.0,30.27,WSW,253,2.0,3.0,88,0.00,,,0.00,weatherlink.com 1.10,2013-02-21 08:20:00,
2013-02-21 03:36:00,21.3,18.0,30.27,SW,236,0.0,3.0,88,0.00,,,0.00,weatherlink.com 1.10,2013-02-21 08:36:00,
2013-02-21 03:51:00,21.5,19.0,30.27,WNW,301,1.0,3.0,89,0.00,,,0.00,weatherlink.com 1.10,2013-02-21 08:51:00,
2013-02-21 04:06:00,21.5,19.0,30.27,NW,318,1.0,7.0,88,0.00,,,0.00,weatherlink.com 1.10,2013-02-21 09:06:00,
2013-02-21 04:21:00,21.5,17.0,30.27,WSW,250,0.0,7.0,84,0.00,,,0.00,weatherlink.com 1.10,2013-02-21 09:21:00,
2013-02-21 04:36:00,21.7,18.0,30.28,WNW,295,2.0,5.0,85,0.00,,,0.00,weatherlink.com 1.10,2013-02-21 09:36:00,
2013-02-21 04:51:00,21.7,18.0,30.29,North,8,2.0,7.0,86,0.00,,,0.00,weatherlink.com 1.10,2013-02-21 09:51:00,
2013-02-21 05:06:00,21.4,18.0,30.29,NW,310,4.0,11.0,85,0.00,,,0.00,weatherlink.com 1.10,2013-02-21 10:06:00,
2013-02-21 05:21:00,20.6,17.0,30.30,NNW,334,0.0,8.0,87,0.00,,,0.00,weatherlink.com 1.10,2013-02-21 10:21:00,
2013-02-21 05:36:00,20.2,17.0,30.31,NNW,337,0.0,6.0,86,0.00,,,0.00,weatherlink.com 1.10,2013-02-21 10:36:00,
2013-02-21 05:51:00,19.9,16.0,30.32,NW,324,0.0,7.0,86,0.00,,,0.00,weatherlink.com 1.10,2013-02-21 10:51:00,
2013-02-21 06:06:00,19.8,17.0,30.32,SW,219,1.0,5.0,87,0.00,,,0.00,weatherlink.com 1.10,2013-02-21 11:06:00,
2013-02-21 06:21:00,19.8,16.0,30.33,West,281,2.0,7.0,86,0.00,,,0.00,weatherlink.com 1.10,2013-02-21 11:21:00,
2013-02-21 06:36:00,19.7,16.0,30.33,North,354,5.0,6.0,86,0.00,,,0.00,weatherlink.com 1.10,2013-02-21 11:36:00,
2013-02-21 06:51:00,19.7,16.0,30.34,NE,48,0.0,6.0,86,0.00,,,0.00,weatherlink.com 1.10,2013-02-21 11:51:00,
2013-02-21 07:06:00,19.5,16.0,30.34,North,10,0.0,8.0,86,0.00,,,0.00,weatherlink.com 1.10,2013-02-21 12:06:00,
2013-02-21 07:21:00,19.2,16.0,30.34,NNW,341,1.0,7.0,86,0.00,,,0.00,weatherlink.com 1.10,2013-02-21 12:21:00,
2013-02-21 07:36:00,18.9,15.0,30.36,NNE,28,0.0,8.0,85,0.00,,,0.00,weatherlink.com 1.10,2013-02-21 12:36:00,
2013-02-21 07:51:00,18.9,15.0,30.37,North,11,1.0,7.0,85,0.00,,,0.00,weatherlink.com 1.10,2013-02-21 12:51:00,
2013-02-21 08:06:00,19.1,15.0,30.37,SW,226,1.0,6.0,84,0.00,,,0.00,weatherlink.com 1.10,2013-02-21 13:06:00,
2013-02-21 08:22:00,19.4,15.0,30.40,North,10,0.0,6.0,83,0.00,,,0.00,weatherlink.com 1.10,2013-02-21 13:22:00,
2013-02-21 08:36:00,19.7,15.0,30.40,North,350,3.0,6.0,81,0.00,,,0.00,weatherlink.com 1.10,2013-02-21 13:36:00,
2013-02-21 08:51:00,20.1,14.0,30.40,NNW,335,1.0,10.0,76,0.00,,,0.00,weatherlink.com 1.10,2013-02-21 13:51:00,
2013-02-21 09:06:00,20.3,14.0,30.40,NNE,27,2.0,10.0,77,0.00,,,0.00,weatherlink.com 1.10,2013-02-21 14:06:00,
2013-02-21 09:22:00,20.3,14.0,30.40,West,278,3.0,9.0,77,0.00,,,0.00,weatherlink.com 1.10,2013-02-21 14:22:00,
2013-02-21 09:37:00,20.5,14.0,30.39,NW,326,1.0,7.0,77,0.00,,,0.00,weatherlink.com 1.10,2013-02-21 14:37:00,
2013-02-21 09:51:00,20.6,15.0,30.39,ENE,71,4.0,8.0,78,0.00,,,0.00,weatherlink.com 1.10,2013-02-21 14:51:00,
2013-02-21 10:06:00,20.7,15.0,30.38,ENE,70,3.0,7.0,78,0.00,,,0.00,weatherlink.com 1.10,2013-02-21 15:06:00,
2013-02-21 10:21:00,20.8,14.0,30.39,North,11,1.0,9.0,76,0.00,,,0.00,weatherlink.com 1.10,2013-02-21 15:21:00,
2013-02-21 10:36:00,21.2,15.0,30.40,NW,314,1.0,5.0,76,0.00,,,0.00,weatherlink.com 1.10,2013-02-21 15:36:00,
2013-02-21 10:51:00,20.9,14.0,30.40,SSW,197,1.0,10.0,73,0.00,,,0.00,weatherlink.com 1.10,2013-02-21 15:51:00,
2013-02-21 11:06:00,21.3,14.0,30.40,NW,318,2.0,7.0,73,0.00,,,0.00,weatherlink.com 1.10,2013-02-21 16:06:00,
2013-02-21 11:22:00,21.4,14.0,30.41,NE,35,4.0,8.0,73,0.00,,,0.00,weatherlink.com 1.10,2013-02-21 16:22:00,
2013-02-21 11:37:00,21.3,14.0,30.41,WNW,295,3.0,8.0,73,0.00,,,0.00,weatherlink.com 1.10,2013-02-21 16:37:00,
2013-02-21 11:52:00,21.4,14.0,30.42,NNE,14,2.0,5.0,73,0.00,,,0.00,weatherlink.com 1.10,2013-02-21 16:52:00,
2013-02-21 12:07:00,21.6,14.0,30.41,NE,40,7.0,9.0,73,0.00,,,0.00,weatherlink.com 1.10,2013-02-21 17:07:00,
2013-02-21 12:22:00,20.8,14.0,30.40,NE,35,7.0,9.0,74,0.00,,,0.00,weatherlink.com 1.10,2013-02-21 17:22:00,
2013-02-21 12:37:00,21.7,15.0,30.40,ENE,60,5.0,7.0,74,0.00,,,0.00,weatherlink.com 1.10,2013-02-21 17:37:00,
2013-02-21 12:52:00,21.6,15.0,30.39,NE,52,6.0,10.0,74,0.00,,,0.00,weatherlink.com 1.10,2013-02-21 17:52:00,
2013-02-21 13:07:00,21.5,15.0,30.38,WSW,251,0.0,9.0,75,0.00,,,0.00,weatherlink.com 1.10,2013-02-21 18:07:00,
2013-02-21 13:22:00,21.8,15.0,30.39,NNW,334,4.0,8.0,74,0.00,,,0.00,weatherlink.com 1.10,2013-02-21 18:22:00,
2013-02-21 13:37:00,22.4,15.0,30.38,NE,50,1.0,6.0,72,0.00,,,0.00,weatherlink.com 1.10,2013-02-21 18:37:00,
2013-02-21 13:52:00,22.9,15.0,30.41,SW,232,3.0,6.0,72,0.00,,,0.00,weatherlink.com 1.10,2013-02-21 18:52:00,
2013-02-21 14:07:00,22.4,15.0,30.39,NW,317,1.0,3.0,72,0.00,,,0.00,weatherlink.com 1.10,2013-02-21 19:07:00,
2013-02-21 14:22:00,23.2,15.0,30.39,NE,41,2.0,4.0,72,0.00,,,0.00,weatherlink.com 1.10,2013-02-21 19:22:00,
2013-02-21 14:37:00,22.4,14.0,30.37,ENE,74,0.0,8.0,71,0.00,,,0.00,weatherlink.com 1.10,2013-02-21 19:37:00,
2013-02-21 14:52:00,23.0,15.0,30.38,ESE,118,1.0,4.0,71,0.00,,,0.00,weatherlink.com 1.10,2013-02-21 19:52:00,
2013-02-21 15:07:00,22.6,14.0,30.37,NE,39,2.0,6.0,70,0.00,,,0.00,weatherlink.com 1.10,2013-02-21 20:07:00,
2013-02-21 15:22:00,22.7,14.0,30.37,North,8,7.0,11.0,69,0.00,,,0.00,weatherlink.com 1.10,2013-02-21 20:22:00,
2013-02-21 15:37:00,22.6,14.0,30.36,NE,45,4.0,8.0,70,0.00,,,0.00,weatherlink.com 1.10,2013-02-21 20:37:00,
2013-02-21 15:52:00,22.5,14.0,30.36,NNE,27,1.0,8.0,70,0.00,,,0.00,weatherlink.com 1.10,2013-02-21 20:52:00,
2013-02-21 16:07:00,22.6,15.0,30.36,ENE,68,2.0,7.0,71,0.00,,,0.00,weatherlink.com 1.10,2013-02-21 21:07:00,
2013-02-21 16:22:00,22.6,14.0,30.36,ENE,67,1.0,10.0,69,0.00,,,0.00,weatherlink.com 1.10,2013-02-21 21:22:00,
2013-02-21 16:37:00,22.9,14.0,30.38,NNE,27,6.0,6.0,69,0.00,,,0.00,weatherlink.com 1.10,2013-02-21 21:37:00,
2013-02-21 16:52:00,22.6,14.0,30.38,East,95,0.0,4.0,70,0.00,,,0.00,weatherlink.com 1.10,2013-02-21 21:52:00,
2013-02-21 17:07:00,22.7,14.0,30.38,NNE,25,3.0,3.0,70,0.00,,,0.00,weatherlink.com 1.10,2013-02-21 22:07:00,
2013-02-21 17:22:00,22.5,15.0,30.40,North,4,0.0,3.0,72,0.00,,,0.00,weatherlink.com 1.10,2013-02-21 22:22:00,
2013-02-21 17:37:00,22.3,15.0,30.40,ENE,70,3.0,6.0,73,0.00,,,0.00,weatherlink.com 1.10,2013-02-21 22:37:00,
2013-02-21 17:52:00,21.9,15.0,30.39,ENE,58,2.0,6.0,75,0.00,,,0.00,weatherlink.com 1.10,2013-02-21 22:52:00,
2013-02-21 18:07:00,21.5,15.0,30.40,ENE,64,4.0,7.0,75,0.00,,,0.00,weatherlink.com 1.10,2013-02-21 23:07:00,
2013-02-21 18:22:00,21.4,15.0,30.40,ESE,105,0.0,4.0,76,0.00,,,0.00,weatherlink.com 1.10,2013-02-21 23:22:00,
2013-02-21 18:37:00,21.3,15.0,30.40,NE,44,0.0,4.0,77,0.00,,,0.00,weatherlink.com 1.10,2013-02-21 23:37:00,
2013-02-21 18:52:00,21.1,16.0,30.39,NNE,12,1.0,3.0,79,0.00,,,0.00,weatherlink.com 1.10,2013-02-21 23:52:00,
2013-02-21 19:07:00,20.9,16.0,30.39,ENE,57,0.0,2.0,80,0.00,,,0.00,weatherlink.com 1.10,2013-02-22 00:07:00,
2013-02-21 19:22:00,20.7,15.0,30.40,NNE,25,0.0,3.0,80,0.00,,,0.00,weatherlink.com 1.10,2013-02-22 00:22:00,
2013-02-21 19:37:00,20.8,16.0,30.40,NNE,25,0.0,0.0,81,0.00,,,0.00,weatherlink.com 1.10,2013-02-22 00:37:00,
2013-02-21 19:52:00,20.7,16.0,30.39,NNE,25,0.0,0.0,81,0.00,,,0.00,weatherlink.com 1.10,2013-02-22 00:52:00,
2013-02-21 20:07:00,20.6,16.0,30.39,NNE,25,0.0,0.0,81,0.00,,,0.00,weatherlink.com 1.10,2013-02-22 01:07:00,
2013-02-21 20:22:00,20.6,16.0,30.37,NNE,25,0.0,0.0,82,0.00,,,0.00,weatherlink.com 1.10,2013-02-22 01:22:00,
2013-02-21 20:37:00,20.4,16.0,30.36,ENE,62,1.0,3.0,82,0.00,,,0.00,weatherlink.com 1.10,2013-02-22 01:37:00,
2013-02-21 20:52:00,20.3,16.0,30.36,East,86,1.0,7.0,82,0.00,,,0.00,weatherlink.com 1.10,2013-02-22 01:52:00,
2013-02-21 21:07:00,20.3,15.0,30.35,ESE,104,0.0,5.0,81,0.00,,,0.00,weatherlink.com 1.10,2013-02-22 02:07:00,
2013-02-21 21:22:00,20.4,15.0,30.35,NE,38,0.0,4.0,81,0.00,,,0.00,weatherlink.com 1.10,2013-02-22 02:22:00,
2013-02-21 21:37:00,20.4,15.0,30.35,East,87,3.0,5.0,80,0.00,,,0.00,weatherlink.com 1.10,2013-02-22 02:37:00,
2013-02-21 21:52:00,20.4,15.0,30.34,ENE,68,4.0,6.0,81,0.00,,,0.00,weatherlink.com 1.10,2013-02-22 02:52:00,
2013-02-21 22:07:00,20.4,15.0,30.34,ESE,118,0.0,3.0,80,0.00,,,0.00,weatherlink.com 1.10,2013-02-22 03:07:00,
2013-02-21 22:22:00,20.4,15.0,30.34,ENE,64,2.0,4.0,81,0.00,,,0.00,weatherlink.com 1.10,2013-02-22 03:22:00,
2013-02-21 22:37:00,20.4,15.0,30.32,NE,56,0.0,7.0,80,0.00,,,0.00,weatherlink.com 1.10,2013-02-22 03:37:00,
2013-02-21 22:52:00,20.4,15.0,30.32,East,93,3.0,7.0,80,0.00,,,0.00,weatherlink.com 1.10,2013-02-22 03:52:00,
2013-02-21 23:07:00,20.4,15.0,30.32,East,99,2.0,6.0,80,0.00,,,0.00,weatherlink.com 1.10,2013-02-22 04:07:00,
2013-02-21 23:37:00,20.6,15.0,30.32,ENE,68,3.0,5.0,80,0.00,,,0.00,weatherlink.com 1.10,2013-02-22 04:37:00,
2013-02-21 23:52:00,20.6,15.0,30.32,ENE,73,0.0,7.0,80,0.00,,,0.00,weatherlink.com 1.10,2013-02-22 04:52:00,